TimeMST,TemperatureF,Dew PointF,Humidity,Sea Level PressureIn,VisibilityMPH,Wind Direction,Wind SpeedMPH,Gust SpeedMPH,PrecipitationIn,Events,Conditions,WindDirDegrees,DateUTC
12:56 AM,37.0,25.0,62,29.75,10.0,SW,20.7,28.8,N/A,,Mostly Cloudy,230,2013-11-18 07:56:00
1:56 AM,39.0,26.1,60,29.74,10.0,WSW,19.6,31.1,N/A,,Overcast,240,2013-11-18 08:56:00
2:56 AM,39.0,26.1,60,29.75,10.0,WSW,24.2,32.2,N/A,,Overcast,240,2013-11-18 09:56:00
3:56 AM,37.9,26.1,62,29.76,10.0,WSW,18.4,-,N/A,,Mostly Cloudy,240,2013-11-18 10:56:00
4:56 AM,37.9,26.1,62,29.78,10.0,WSW,23.0,-,N/A,,Clear,240,2013-11-18 11:56:00
5:56 AM,39.0,25.0,57,29.78,10.0,WSW,25.3,31.1,N/A,,Mostly Cloudy,240,2013-11-18 12:56:00
6:56 AM,39.0,25.0,57,29.80,10.0,WSW,20.7,31.1,N/A,,Partly Cloudy,240,2013-11-18 13:56:00
7:56 AM,39.0,25.0,57,29.81,10.0,WSW,18.4,27.6,N/A,,Clear,240,2013-11-18 14:56:00
8:56 AM,41.0,25.0,53,29.81,10.0,WSW,23.0,35.7,N/A,,Clear,240,2013-11-18 15:56:00
9:56 AM,44.1,25.0,47,29.82,10.0,SW,21.9,28.8,N/A,,Clear,230,2013-11-18 16:56:00
10:56 AM,45.0,24.1,44,29.81,10.0,SW,23.0,39.1,N/A,,Clear,230,2013-11-18 17:56:00
11:56 AM,46.0,24.1,42,29.75,10.0,SW,35.7,41.4,N/A,,Clear,230,2013-11-18 18:56:00
12:56 PM,46.0,24.1,42,29.75,10.0,WSW,29.9,38.0,N/A,,Clear,240,2013-11-18 19:56:00
1:56 PM,45.0,23.0,42,29.75,10.0,SW,25.3,38.0,N/A,,Partly Cloudy,220,2013-11-18 20:56:00
2:56 PM,46.9,25.0,42,29.74,10.0,South,15.0,-,N/A,,Overcast,180,2013-11-18 21:56:00
3:56 PM,43.0,26.1,51,29.73,10.0,SW,21.9,-,N/A,,Clear,220,2013-11-18 22:56:00
4:56 PM,42.1,26.1,53,29.74,10.0,SW,15.0,-,N/A,,Clear,220,2013-11-18 23:56:00
5:56 PM,39.9,26.1,58,29.73,10.0,SW,10.4,18.4,N/A,,Clear,220,2013-11-19 00:56:00
6:56 PM,41.0,26.1,55,29.70,10.0,SW,19.6,-,N/A,,Clear,230,2013-11-19 01:56:00
7:56 PM,42.1,27.0,55,29.68,10.0,SSW,20.7,27.6,N/A,,Clear,200,2013-11-19 02:56:00
8:56 PM,41.0,27.0,57,29.68,10.0,South,15.0,23.0,N/A,,Clear,190,2013-11-19 03:56:00
9:56 PM,43.0,27.0,53,29.62,10.0,SW,24.2,32.2,N/A,,Clear,220,2013-11-19 04:56:00
10:56 PM,41.0,26.1,55,29.64,10.0,South,11.5,-,N/A,,Scattered Clouds,170,2013-11-19 05:56:00
11:56 PM,37.0,25.0,62,29.62,10.0,SSE,5.8,-,N/A,,Clear,150,2013-11-19 06:56:00